TimeCDT,TemperatureF,Dew PointF,Humidity,Sea Level PressureIn,VisibilityMPH,Wind Direction,Wind SpeedMPH,Gust SpeedMPH,PrecipitationIn,Events,Conditions,WindDirDegrees,DateUTC
12:54 AM,66.0,64.0,93,29.72,3.0,South,16.1,26.5,0.05,Rain,Rain,170,2012-10-14 05:54:00
1:13 AM,66.2,64.4,94,29.74,2.0,South,16.1,-,0.11,Rain,Heavy Rain,170,2012-10-14 06:13:00
1:25 AM,64.4,64.4,100,29.73,1.8,South,12.7,-,0.23,Rain,Heavy Rain,170,2012-10-14 06:25:00
1:32 AM,64.4,64.4,100,29.73,2.0,South,11.5,-,0.28,Rain,Heavy Rain,180,2012-10-14 06:32:00
1:52 AM,64.4,64.4,100,29.72,3.0,South,10.4,-,0.39,Rain,Rain,180,2012-10-14 06:52:00
1:54 AM,64.9,64.0,97,29.71,3.0,South,9.2,-,0.40,Rain,Rain,170,2012-10-14 06:54:00
2:20 AM,64.4,64.4,100,29.69,2.0,South,12.7,-,0.08,Rain,Heavy Rain,170,2012-10-14 07:20:00
2:38 AM,64.4,62.6,94,29.68,3.0,South,13.8,19.6,0.12,Rain,Light Rain,180,2012-10-14 07:38:00
2:54 AM,64.9,63.0,93,29.67,4.0,South,16.1,23.0,0.13,Rain,Light Rain,170,2012-10-14 07:54:00
3:23 AM,64.4,62.6,94,29.65,3.0,South,11.5,-,0.06,Rain,Light Rain,180,2012-10-14 08:23:00
3:36 AM,64.4,62.6,94,29.65,3.0,South,11.5,-,0.08,Rain,Light Rain,180,2012-10-14 08:36:00
3:51 AM,64.4,62.6,94,29.64,2.5,South,15.0,-,0.13,Rain,Light Rain,180,2012-10-14 08:51:00
3:54 AM,64.0,63.0,96,29.63,3.0,South,13.8,-,0.13,Rain,Light Rain,190,2012-10-14 08:54:00
4:54 AM,64.0,62.1,93,29.61,8.0,SW,18.4,24.2,0.00,Rain,Light Rain,230,2012-10-14 09:54:00
5:38 AM,62.6,60.8,94,29.59,10.0,South,12.7,-,0.01,Rain,Light Rain,190,2012-10-14 10:38:00
5:54 AM,62.1,60.1,93,29.55,10.0,SE,6.9,-,0.01,,Mostly Cloudy,140,2012-10-14 10:54:00
6:33 AM,62.6,60.8,94,29.61,10.0,SW,12.7,-,0.00,,Mostly Cloudy,220,2012-10-14 11:33:00
6:54 AM,63.0,60.1,90,29.60,10.0,SSW,16.1,-,0.00,,Overcast,200,2012-10-14 11:54:00
7:09 AM,62.6,60.8,94,29.61,10.0,SSW,13.8,20.7,N/A,,Overcast,200,2012-10-14 12:09:00
7:54 AM,63.0,60.1,90,29.59,10.0,SSW,13.8,24.2,N/A,,Overcast,200,2012-10-14 12:54:00
8:06 AM,62.6,60.8,94,29.60,10.0,SSW,13.8,-,N/A,,Overcast,200,2012-10-14 13:06:00
8:54 AM,63.0,60.1,90,29.57,10.0,South,19.6,27.6,N/A,,Overcast,190,2012-10-14 13:54:00
9:39 AM,62.6,60.8,94,29.57,10.0,SSW,21.9,31.1,0.01,,Overcast,200,2012-10-14 14:39:00
9:54 AM,63.0,60.1,90,29.57,10.0,SSW,28.8,39.1,0.01,,Overcast,210,2012-10-14 14:54:00
10:25 AM,66.2,60.8,83,29.56,10.0,SSW,20.7,28.8,N/A,,Mostly Cloudy,200,2012-10-14 15:25:00
10:37 AM,66.2,60.8,83,29.56,10.0,SSW,23.0,34.5,N/A,,Scattered Clouds,200,2012-10-14 15:37:00
10:47 AM,66.2,60.8,83,29.56,10.0,SSW,18.4,32.2,N/A,,Mostly Cloudy,210,2012-10-14 15:47:00
10:54 AM,66.9,61.0,81,29.55,10.0,SW,24.2,32.2,N/A,,Mostly Cloudy,220,2012-10-14 15:54:00
11:54 AM,68.0,60.1,76,29.54,10.0,SW,26.5,34.5,N/A,,Overcast,220,2012-10-14 16:54:00
12:17 PM,68.0,60.8,78,29.53,10.0,SSW,20.7,29.9,0.00,Rain,Light Rain,210,2012-10-14 17:17:00
12:27 PM,66.2,60.8,83,29.53,7.0,SW,21.9,31.1,0.00,Rain-Thunderstorm,Light Thunderstorms and Rain,220,2012-10-14 17:27:00
12:54 PM,71.1,61.0,70,29.51,10.0,SW,23.0,33.4,0.01,,Mostly Cloudy,230,2012-10-14 17:54:00
1:27 PM,64.4,60.8,88,29.52,2.5,SW,19.6,33.4,0.04,Rain,Light Rain,230,2012-10-14 18:27:00
1:35 PM,64.4,60.8,88,29.52,10.0,SW,20.7,29.9,0.04,Rain,Light Rain,230,2012-10-14 18:35:00
1:49 PM,62.6,59.0,88,29.54,3.0,West,16.1,27.6,0.06,Rain,Light Rain,260,2012-10-14 18:49:00
1:54 PM,64.0,59.0,84,29.53,10.0,West,18.4,25.3,0.06,Rain,Light Rain,260,2012-10-14 18:54:00
2:02 PM,64.4,57.2,77,29.54,10.0,West,19.6,31.1,0.01,,Overcast,270,2012-10-14 19:02:00
2:54 PM,59.0,51.8,77,29.59,10.0,West,26.5,35.7,N/A,,Overcast,270,2012-10-14 19:54:00
3:54 PM,57.0,51.1,81,29.65,10.0,West,23.0,32.2,N/A,,Overcast,270,2012-10-14 20:54:00
4:54 PM,54.0,48.9,83,29.71,10.0,West,20.7,35.7,N/A,,Overcast,280,2012-10-14 21:54:00
5:54 PM,54.0,48.9,83,29.76,10.0,WNW,17.3,26.5,N/A,,Overcast,290,2012-10-14 22:54:00
6:54 PM,53.1,46.9,80,29.79,10.0,WNW,12.7,25.3,N/A,,Overcast,300,2012-10-14 23:54:00
7:16 PM,53.6,46.4,77,29.80,10.0,WNW,12.7,26.5,N/A,,Overcast,300,2012-10-15 00:16:00
7:54 PM,53.1,46.0,77,29.82,10.0,WNW,12.7,19.6,N/A,,Overcast,290,2012-10-15 00:54:00
8:54 PM,51.1,45.0,80,29.83,10.0,WNW,11.5,-,N/A,,Clear,290,2012-10-15 01:54:00
9:54 PM,50.0,45.0,83,29.85,10.0,NW,9.2,16.1,N/A,,Partly Cloudy,310,2012-10-15 02:54:00
10:54 PM,48.9,43.0,80,29.87,10.0,NW,6.9,-,N/A,,Clear,310,2012-10-15 03:54:00
11:54 PM,48.2,42.8,82,29.89,10.0,WNW,4.6,-,N/A,,Clear,290,2012-10-15 04:54:00